sat.trackr.live / text

‹ back to catalog

STARLINK-33923

NORAD 63786 · 2025-091M

PAYLOAD ACTIVE UNKNOWN

§ Identity

Operator
Country
US
Launch date
2025-05-02
Launch site
AFETR
Launch vehicle
Mass (kg)
RCS (m²)

Purposes: comms

External: N2YO · Heavens-Above · Gunter

§ Orbital elements

Epoch: 2026-09-20T19:39:01.594944Z

Period
94.27 min
Inclination
43.0042°
Eccentricity
0.0001355
Mean motion
15.27580497 rev/d
Perigee alt
482.1 km
Apogee alt
484.0 km
Semi-major
6,861.2 km
B*
4.0439e-4
RAAN
30.6263°
Arg perigee
316.4762°
Mean anomaly
43.5982°
Rev number
7,869

§ Raw data

STARLINK-339231 63786U 25091M   26263.81876846  .00010882  00000+0  40439-3 0  99952 63786  43.0042  30.6263 0001355 316.4762  43.5982 15.27580497 78697

JSON: /api/v1/satellites/63786 · /tle

For live sub-satellite position, see the globe view (requires WebGL).

§ Visibility from observer

Set your observer location to see the next 7 days of passes ≥ 10°. The values pass through the URL so the page stays shareable.

No JS? Fill the form by hand. The geolocation button needs JavaScript.